Weather in Puerto Limon

Costa Rica     9°59′11″N   83°04′10″W
temp.,
°C
wind,
m/s
gust,
m/s
humid.,
%
clouds,
%
prec.,
mm/h
press.,
hPa
HPBL,
m
11 april, sun
sun1100:00+25wsw228671 2.8 1009100
03:00+24w228216 0.1 1008124
06:00+25w227919 0.2 1009128
09:00+27nw227027 0.0 1011417
12:00+28nne32728 0.0 1009558
15:00+28ne3374100 0.0 1006625
18:00+27ese2280100 0.1 1007390
21:00+26s2285100 0.0 1009196
12 april, mon
mon1200:00+25ssw118552 0.1 100884
03:00+25sw228696 0.1 100899
06:00+25sw22827 0.3 1010108
09:00+28ne117111 0.0 1011453
12:00+29ene327019 0.1 1009690
15:00+28ene3371100 0.1 1007707
18:00+27e227996 0.1 1009425
21:00+26sse228330 0.2 1010214
13 april, tue
tue1300:00+25ssw22845 0.2 1010121
03:00+25s11825 0.0 1009121
06:00+25ssw11805 0.0 1010108
09:00+28e11715 0.0 1012428
12:00+28ne337212 0.0 1010782
15:00+28ne337341 0.5 1008620
18:00+26nne2284100 3.6 1010108
21:00+26ssw118377 1.1 101262
14 april, wed
wed1400:00+25wsw11845 1.5 101168
03:00+25w228412 0.1 1010114
06:00+25w228310 0.6 1012133
09:00+27nnw227348 0.3 1013471
12:00+28nne3375100 1.7 1011558
15:00+27ne2276100 2.3 1009414
18:00+26ene0180100 3.3 1010333
21:00+26w118599 0.3 1012122
15 april, thu
thu1500:00+25w228711 0.5 1010147
03:00+25w338672 0.1 1009185
06:00+25wnw348526 0.3 1010188
09:00+27nw347498 0.4 1012525
12:00+28n447556 0.9 1010632
15:00+28n4475100 1.5 1008583
18:00+26nw2384100 6.1 1009175
21:00+26wnw2384100 1.9 1010182